Regional Weather Roundup
Issued by NWS New Orleans/Baton Rouge, LA

Home | Current Version | Previous Version | Graphics & Text | Print | Product List | Glossary On
Versions: 1 2 3 4 5 6 7 8 9 10 11 12 13 14 15 16 17 18 19 20 21 22 23 24 25 26 27 28 29 30 31 32 33 34 35 36 37 38 39 40 41 42 43 44 45 46 47 48 49 50
738
ASUS44 KLIX 241005
RWRLIX
NEW ORLEANS REGIONAL WEATHER ROUNDUP
NATIONAL WEATHER SERVICE NEW ORLEANS LA
500 AM CDT THU APR 24 2014

NOTE: "FAIR" INDICATES FEW OR NO CLOUDS BELOW 12,000 FEET WITH NO
      SIGNIFICANT WEATHER AND/OR OBSTRUCTIONS TO VISIBILITY.
      SKY/WX - SKY CONDITION AND SIGNIFICANT WEATHER.
      TMP - AIR TEMPERATURE.     DP    - DEWPOINT TEMPERATURE.
      RH  - RELATIVE HUMIDITY.   PRES  - PRESSURE.
      HI  - HEAT INDEX.          WCI   - WIND CHILL INDEX.

*  THESE STATIONS ARE NOT NWS OR FAA STATIONS AND ARE NOT UNDER
   NWS QUALITY CONTROL.

LAZ038-040-048-061>063-065>067-069-241100-
SOUTHEAST LOUISIANA

CITY           SKY/WX    TMP DP  RH WIND       PRES   REMARKS
N.O. AUDUBON     N/A     67  64  90 MISG        N/A
N.O. INTL ARPT CLEAR     65  63  93 SE3       29.91S
N.O. LAKEFRONT CLEAR     67  65  93 S3        29.92R
N.O. DOWNTOWN*   N/A     70  63  78 CALM      29.92S
SLIDELL        CLOUDY    57  55  93 CALM      29.91R FOG
BATON ROUGE    CLEAR     62  59  90 CALM      29.89F
BOOTHVILLE     PTCLDY    69  66  90 SW7       29.92S
BELLE CHASSE   FOG       58  56  93 CALM      29.91S VSB 1/4
BOGALUSA*        N/A     58  55  89 CALM      29.92S FOG
GALLIANO*      FOG       58  56  93 CALM      29.91S VSB 3/4
NEW ROADS*     CLOUDY    61  60  97 CALM      29.89S FOG
GONZALES*        N/A     59  59 100 CALM      29.89F FOG
HAMMOND*       CLEAR     59  57  94 CALM      29.92S
HOUMA*           N/A     61  59  94 CALM      29.90F FOG
PORT FOURCHON* CLOUDY    70  66  88 S5        29.93S

$$

MSZ070-080>082-241100-
SOUTHERN MISSISSIPPI

CITY           SKY/WX    TMP DP  RH WIND       PRES   REMARKS
MCCOMB         CLEAR     59  57  93 CALM      29.90S FOG
GULFPORT       CLEAR     64  60  87 CALM      29.91S FOG
BILOXI         CLEAR     66  66 100 CALM      29.92S
PASCAGOULA     FOG       59  59 100 CALM      29.92S VSB 1

$$

COASTAL OBSERVATIONS
LAKE AND NEARSHORE STATIONS

STATION/POSITION TIME  TEMP    WIND        PRES    WAVE
                       AIR SEA DIR/SP/G            HT/PER
                 (UTC) (F)     (DEG/KT/KT) (MB)    (FT/S)
PASCAGOULA       1000   69     260/  5/  5 1012.6
WAVELAND YACHT   1000   67 75  220/  3/  3 1011.9
GRAND ISLE       1000   69 72  220/  3/  6 1013.6
SOUTHWEST PASS   1000   66 60  200/  5/  6 1013.4
NEW CANAL        1000   67 71  200/  1/  2 1013.2
SHELL BEACH      1000   69 68  210/  2/  2 1012.6

OFFSHORE STATIONS

STATION/POSITION TIME  TEMP    WIND        PRES    WAVE
                       AIR SEA DIR/SP/G            HT/PER
                 (UTC) (F)     (DEG/KT/KT) (MB)    (FT/S)
64 S DAUPHIN ISL 0916   69 71  220/  6/  8 1013.6

$$




USA.gov is the U.S. government's official web portal to all federal, state and local government web resources and services.